Regional Weather Roundup
Issued by NWS Sterling, VA

Home | Current Version | Previous Version | Text Only | Print | Product List | Glossary On
Versions: 1 2 3 4 5 6 7 8 9 10 11 12 13 14 15 16 17 18 19 20 21 22 23 24 25 26 27 28 29 30 31 32 33 34 35 36 37 38 39 40 41 42 43 44 45 46 47 48 49 50
000
ASUS41 KLWX 301710
RWRLWX

REGIONAL WEATHER ROUNDUP
NATIONAL WEATHER SERVICE BALTIMORE MD/WASHINGTON DC
100 PM EDT TUE JUN 30 2015

Note: "FAIR" indicates few or no clouds below 12,000 feet
with no significant weather and/or obstructions to visibility.
 TC=TEMPERATURE CELSIUS

 * =Non NWS site. Station does not report precipitation (e.g. rain,
    snow, etc.), thunder, or fog.

DCZ001-MDZ009-015-VAZ040>042-051-053>054-301800-
WASHINGTON METRO

CITY           SKY/WX    TMP DP  RH WIND       PRES   REMARKS
WASHINGTON NAT PTSUNNY   83  69  62 S7        29.88F
DULLES         MOSUNNY   81  68  64 S13G18    29.88F
ANDREWS AFB    SUNNY     84  73  70 S15       29.88F HX  90
FT BELVOIR     MOSUNNY   82  68  62 VRB5      29.88F
QUANTICO       PTSUNNY   84  67  56 SW9       29.89F
COLLEGE PARK*  MOSUNNY   84  68  58 SW8       29.88F
LEESBURG*      MOSUNNY   84  72  65 S10       29.89F
MANASSAS*      SUNNY     82  70  65 S10         N/A
GAITHERSBURG*  PTSUNNY   81  68  65 SW8       29.93S

$$

MDZ006>007-011-014-301800-
BALTIMORE METRO

CITY           SKY/WX    TMP DP  RH WIND       PRES   REMARKS
BWI AIRPORT    PTSUNNY   83  70  64 S10       29.87F
MD SCIENCE CTR   N/A     83  72  69 MISG      29.90F
MARTIN STATE   PTSUNNY   81  77  89 SE9       29.90F
ANNAPOLIS      PTSUNNY   81  72  74 S14G25    29.88F
FORT MEADE*    PTSUNNY   81  70  69 S6        29.90F

$$

MDZ012-015-019>023-301800-
MARYLAND EASTERN SHORE

CITY           SKY/WX    TMP DP  RH WIND       PRES   REMARKS
OCEAN CITY     NOT AVBL
SALISBURY      SUNNY     83  69  62 SE15G22   29.92F
BAY BRIDGE AP*   N/A     81  70  69 S12G18    29.89S
CAMBRIDGE*     MOSUNNY   86  68  54 S15G24    29.90F
EASTON*        PTSUNNY   88  70  55 S17G23    29.94S HX  92

$$

MDZ017>025-301800-
SOUTHERN MARYLAND

CITY           SKY/WX    TMP DP  RH WIND       PRES   REMARKS
PATUXENT RIVER MOSUNNY   84  73  69 SE15G21   29.90S HX  90
ST INIGOES     SUNNY     84  72  67 S10G20    29.89F
LEONARDTOWN*   PTSUNNY   82  70  65 S9        29.91F

$$

MDZ003>005-301800-
NORTH CENTRAL MARYLAND

CITY           SKY/WX    TMP DP  RH WIND       PRES   REMARKS
FREDERICK*     MOSUNNY   82  73  74 SW8       29.91F
HAGERSTOWN APT PTSUNNY   82  62  50 SW6       29.87F
WESTMINSTER*   MOSUNNY   84  70  61 S12       29.90F

$$

MDZ501>502-301800-
WESTERN MARYLAND

CITY           SKY/WX    TMP DP  RH WIND       PRES   REMARKS
OAKLAND*       MOSUNNY   70 N/A N/A W9G18     29.97S
CUMBERLAND*    MOSUNNY   81  63  54 SW6       29.90F

$$

VAZ025>031-301800-
SHENANDOAH VALLEY

CITY           SKY/WX    TMP DP  RH WIND       PRES   REMARKS
WINCHESTER*    MOSUNNY   86  64  48 S5        29.89S
FRONT ROYAL*   FAIR      82  64  54 S5        29.88S
LURAY*         FAIR      86  64  48 S6        29.89F
NEW MARKET*    PTSUNNY   82  65  57 S7        29.88S
STAUNTON*      PTSUNNY   82  65  55 SW10      29.94S
WAYNESBORO*    FAIR      76  64  66 SW7       29.95S

$$

WVZ021-048>050-054>055-301800-
EASTERN WEST VIRGINIA PANHANDLE

CITY           SKY/WX    TMP DP  RH WIND       PRES   REMARKS
MARTINSBURG    PTSUNNY   83  64  52 VRB6      29.88S
PETERSBURG*    MOSUNNY   82  55  40 CALM      29.89F

$$

VAZ036>039-050-301800-
CENTRAL FOOTHILLS

CITY           SKY/WX    TMP DP  RH WIND       PRES   REMARKS
CHARLOTTESVILL PTSUNNY   78  68  71 S8        29.91F
CULPEPER*      MOSUNNY   80  67  65 SW8       29.90S
ORANGE*        MOSUNNY   81  68  65 S6        29.91F
GORDONSVILLE*  FAIR      79  70  73 CALM      29.90S
WARRENTON*     FAIR      84  71  66 SW6       29.89S

$$

VAZ055>057-301800-
NORTH AND CENTRAL PIEDMONT

CITY           SKY/WX    TMP DP  RH WIND       PRES   REMARKS
FREDERICKSBRG* MOSUNNY   87  69  54 W9        29.88S HX  92
STAFFORD*      MOSUNNY   84  68  58 SW6       29.93S

$$

NCZ024-NYZ072-PAZ021-071-VAZ022-071-301800-
OTHER REGIONAL OBSERVATIONS

CITY           SKY/WX    TMP DP  RH WIND       PRES   REMARKS
NEW YORK CITY  PTSUNNY   79  57  46 MISG      29.98S
PHILADELPHIA   PTSUNNY   84  67  56 S14G24    29.91F
PITTSBURGH     PTSUNNY   74  62  66 SW13G20   29.85F
ROANOKE        PTSUNNY   79  65  62 SW8       29.96F
RICHMOND       MOSUNNY   88  68  51 S10       29.90F HX  91
RALEIGH        MOSUNNY   89  69  51 SW9       29.95S HX  93

$$

ANZ530>537-301800-
MARINE OBSERVATIONS

STATION/POSITION TIME  TEMP    WIND        PRES
                       AIR SEA DIR/SP/G
                 (UTC) (F)     (DEG/KT/KT) (MB)
THOMAS PT LIGHT  NOT AVBL
BALT KEY BRIDGE  1600   78     150/ 16/ 18 1011.8F
COVE POINT       1600   77     180/ 22/ 25 1013.3F
LEWISETTA        1600   82 80  170/ 14/ 16 1012.3F
SOLOMONS ISLAND  1600      79                N/A
PINEY POINT      1600          160/ 15/ 16   N/A

$$




USA.gov is the U.S. government's official web portal to all federal, state and local government web resources and services.